"Pseudo-MPEC" for C45ZGD1

Created 2026 Mar 8 22:35:12 UT using Find_Orb

Click here for an explanation of pseudo-MPECs

 
 Astrometry: 
     C45ZGD1*1C2026 03 08.38560411 49 09.944+21 34 15.17   ~389o 18.57GVNEOCP703
     C45ZGD1 1C2026 03 08.38783811 49 04.663+21 34 24.17   ~389o 18.47GVNEOCP703
     C45ZGD1 1C2026 03 08.39006511 48 59.346+21 34 33.60   ~389o 19.31GVNEOCP703
     C45ZGD1 1C2026 03 08.39229711 48 54.122+21 34 41.92   ~389o 18.95GVNEOCP703
     C45ZGD1 1C2026 03 08.41486711 48 00.317+21 36 11.48   ~38AK 18.95GVNEOCPI52
     C45ZGD1 1C2026 03 08.41537911 47 59.096+21 36 13.36   ~38AK 19.14GVNEOCPI52
     C45ZGD1 1C2026 03 08.41589111 47 57.872+21 36 15.52   ~38AK 19.43GVNEOCPI52
     C45ZGD1 1C2026 03 08.41640611 47 56.612+21 36 17.32   ~38AK 18.70GVNEOCPI52
     C45ZGD1 1C2026 03 08.48321211 45 17.150+21 40 29.39   ~38Bo 19.12GVNEOCPI52
     C45ZGD1 1C2026 03 08.48372411 45 15.937+21 40 31.26   ~38Bo 19.00GVNEOCPI52
     C45ZGD1 1C2026 03 08.48424311 45 14.699+21 40 33.13   ~38Bo 19.19GVNEOCPI52
     C45ZGD1 1C2026 03 08.48475711 45 13.468+21 40 34.75   ~38Bo 18.83GVNEOCPI52
     C45ZGD1 KC2026 03 08.79612611 33 13.591+21 59 30.12   ~38KZ 18.8 GXNEOCPL18
     C45ZGD1 KC2026 03 08.80501611 32 51.094+22 00 05.94   ~38KZ 18.8 GXNEOCPL18
     C45ZGD1 KB2026 03 08.80509511 32 53.31 +22 00 04.2    ~38KK 19.3 GXNEOCP595
     C45ZGD1 KB2026 03 08.80655011 32 49.70 +22 00 09.6    ~38KK 18.7 GXNEOCP595
     C45ZGD1 KB2026 03 08.80677811 32 47.73 +22 00 02.8    ~38K5 18.0 GVNEOCPG02
     C45ZGD1 KB2026 03 08.80803911 32 45.96 +22 00 14.9    ~38KK       XNEOCP595
     C45ZGD1 KC2026 03 08.81390311 32 28.615+22 00 40.68   ~38KZ 18.8 GXNEOCPL18
     C45ZGD1 KB2026 03 08.81667811 32 22.64 +22 00 42.7    ~38K5 18.2 GVNEOCPG02
     C45ZGD1 KC2026 03 08.83776 11 31 28.59 +22 02 21.0    ~38KZ 18.8 GXNEOCPL04
     C45ZGD1 KC2026 03 08.84096 11 31 20.35 +22 02 33.4    ~38KZ 19.1 GXNEOCPL04
     C45ZGD1 KC2026 03 08.84397 11 31 12.65 +22 02 44.8    ~38KZ 19.0 GXNEOCPL04
     C45ZGD1 KB2026 03 08.86712 11 30 12.78 +22 04 18.4    ~38LK 19.0 GXNEOCPM45
     C45ZGD1 KB2026 03 08.87023 11 30 04.73 +22 04 30.2    ~38LK 18.7 GXNEOCPM45
     C45ZGD1 KB2026 03 08.87351 11 29 56.20 +22 04 42.4    ~38LK 18.8 GXNEOCPM45
     C45ZGD1 KC2026 03 08.88045711 29 41.82 +22 05 05.9    ~38Lo 17.8 GVNEOCP104
     C45ZGD1 KC2026 03 08.88452311 29 31.29 +22 05 21.2    ~38Lo 17.6 GVNEOCP104
     C45ZGD1 KC2026 03 08.88673 11 29 19.80 +22 05 39.8    ~38M5 19.0 GXNEOCPL51
     C45ZGD1 KC2026 03 08.88759 11 29 17.54 +22 05 43.1    ~38M5 18.7 GXNEOCPL51
     C45ZGD1 KC2026 03 08.88846 11 29 15.36 +22 05 45.9    ~38M5 17.7 GXNEOCPL51
     C45ZGD1 KC2026 03 08.89265511 29 10.15 +22 05 51.9    ~38Lo 18.1 GVNEOCP104
     C45ZGD1 KB2026 03 08.89399311 29 02.642+22 05 54.67   ~38M5 17.9 GXNEOCPM35
     C45ZGD1 KB2026 03 08.89797511 28 52.260+22 06 08.89   ~38M5 18.0 GXNEOCPM35
     C45ZGD1 KB2026 03 08.90191011 28 41.952+22 06 22.97   ~38M5 17.9 GXNEOCPM35

Station data:
(104) San Marcello Pistoiese  (N44.064178 E10.803750)  Italy.  Observers P.
   Bacci, M. Maestripieri. Measurers P. Bacci, L. Tesi, G. Fagioli. 0.60-m
   reflector + CCD.
(595) Farra d'Isonzo  (N45.915731 E13.525780)  Italy.  Observers S. Aschi, E.
   Pettarin, G. Panterotto. Measurers S. Aschi, E. Pettarin. 0.40-m f/5.15
   reflector + CCD.
(703) Catalina Sky Survey  (N32.417029 W110.732640)  US/Arizona.  Observer E.
   J. Christensen. Measurers T. Beuden, V. F. Carvajal, D. Fay, J. B.
   Fazekas, D. C. Fuls, A. R. Gibbs, A. D. Grauer, H. Gröller, J. K. Hogan,
   R. A. Kowalski, S. M. Larson, G. J. Leonard, D. Rankin, R. L. Seaman, F.
   C. Shelly, K. W. Wierzchoś. 0.68 m Schmidt + 10K CCD.
(G02) KYSUCE Observatory, Kysucke Nove Mesto  (N49.307313 E18.765390)
   Slovakia.  Observer M. Urbanik. 0.40-m f/4.4 reflector + CCD.
(I52) Steward Observatory, Mt. Lemmon Station  (N32.442570 W110.788920)
   US/Arizona. Measurers T. Beuden, V. F. Carvajal, D. Fay, J. B. Fazekas, D.
   C. Fuls, A. R. Gibbs, A. D. Grauer, H. Gröller, J. K. Hogan, R. A.
   Kowalski, S. M. Larson, G. J. Leonard, D. Rankin, R. L. Seaman, F. C.
   Shelly, K. W. Wierzchoś. 1.0-m prime focus + CCD.
(L04) ROASTERR-1 Observatory, Cluj-Napoca  (N46.820952 E23.596400)  Romania.
   Observer L. Hudin. 0.1-m f/9 refractor + CCD.
(L18) QOS Observatory, Zalistci  (N48.848292 E26.718280)  Ukraine.  Observers
   O. V. Kravchenko, Y. V. Tanasiychuk. Measurer A. M. Kozhukhov. 0.50-m
   f/3.8 reflector + CCD.
(L51) MARGO, Nauchnij  (N44.729397 E34.016400)  Ukraine.  Observer G. Borisov.
    0.4-m f/2.3 astrograph + CCD.
(M35) PS Observatory, Parjol  (N46.575378 E26.616690).  Observer R. Anghel.
   Measurers R. Anghel, A. Anghel. 0.2-m f/12 Cassegrain + CCD.
(M45) Starhopper Observatory, Sfantu Gheorghe  (N45.865494 E25.768890)
   Romania.  Observer F. Ursache. 0.41-m f/7.5 reflector + CMO.

Orbital elements:  C45ZGD1
   Perihelion 2026 Jun 11.863521 +/- 0.0989 TT = 20:43:28.1 (JD 2461203.363521)
Epoch 2026 Mar  9.0 TT = JDT 2461108.5   Earth MOID: 0.0112   Me: 0.0004
M 208.697803192 +/- 0.11            (J2000 ecliptic)             AutoNEOCP
n   1.594946041 +/- 0.000782        Peri.  344.568193 +/- 0.038
a   0.725502175 +/- 0.000237        Node   350.553205 +/- 0.0039
e   0.43309972 +/- 0.000661         Incl.   10.189912 +/- 0.029
P   0.618/225.709d         H 25.60  G  0.15   U  8.0
q 0.411287382 +/- 0.000609    Q 1.039716969 +/- 0.000193
From 35 observations 2026 Mar. 8 (12.4 hr); mean residual 0".46
Residuals in arcseconds: 
260308 703  .43-  .21+    260308 L18  .71+  .24-    260308 M45  .50+  .02-    
260308 703  .00   .15+    260308 L18  .23+  .05+    260308 M45  .15+  .05-    
260308 703  .28-  .58+    260308 595  .67-  .66+    260308 104  .19+  .04+    
260308 703  .92+  .09-    260308 595  .04+  .15+    260308 104  .22+  .12-    
260308 I52  .09+  .11-    260308 G02  .96+  .12-    260308 L51  .35-  .10-    
260308 I52  .09+  .24-    260308 595  .17+  .59-    260308 L51  .56-  .11+    
260308 I52  .04+  .09-    260308 L18  .95+  .44-    260308 L51  .72+  .21-    
260308 I52  .40-  .30-    260308 G02  .08-  .26+    260308 104  .22-  .11-    
260308 I52  .15-  .16-    260308 L04  1.1-  .57+    260308 M35  .24+  .02-    
260308 I52  .03-  .16-    260308 L04  1.7-  .55+    260308 M35  .39+  .14-    
260308 I52  .01-  .17-    260308 L04  1.4-  .30+    260308 M35  .02+  .17-    
260308 I52  .07-  .42-    260308 M45  .41+  .17-    

Ephemerides (geocentric):
Date (UTC) HH   RA             Dec           delta  r     elong  mag " sig PA
---- --------  ------------   ------------  ------ ------ -----  --- --------
2026 03 08 23  11 26 15.184   +22 11 41.31  .02918 1.0206 162.4 18.9 .278 159
2026 03 09 00  11 24 28.589   +22 13 59.11  .02908 1.0205 162.4 18.9 .262 173
2026 03 09 01  11 22 41.161   +22 16 13.44  .02897 1.0204 162.4 18.9 .266  11
2026 03 09 02  11 20 52.905   +22 18 24.19  .02887 1.0203 162.3 18.9 .300  30
2026 03 09 03  11 19 03.824   +22 20 31.25  .02877 1.0202 162.3 18.8 .369  46
2026 03 09 04  11 17 13.923   +22 22 34.51  .02867 1.0201 162.3 18.8 .470  57
2026 03 09 05  11 15 23.208   +22 24 33.85  .02857 1.0200 162.2 18.8 .596  65
2026 03 09 06  11 13 31.685   +22 26 29.16  .02848 1.0199 162.2 18.8 .744  70
2026 03 09 07  11 11 39.359   +22 28 20.33  .02838 1.0199 162.1 18.8 .912  74
2026 03 09 08  11 09 46.238   +22 30 07.25  .02829 1.0198 162.0 18.8 1.10  77
2026 03 09 09  11 07 52.329   +22 31 49.80  .02820 1.0197 161.9 18.8 1.31  79
2026 03 09 10  11 05 57.640   +22 33 27.87  .02811 1.0196 161.8 18.8 1.53  81
2026 03 09 11  11 04 02.180   +22 35 01.35  .02802 1.0195 161.7 18.8 1.77  82
2026 03 09 12  11 02 05.957   +22 36 30.12  .02793 1.0194 161.5 18.8 2.04  83
2026 03 09 13  11 00 08.981   +22 37 54.08  .02785 1.0193 161.4 18.8 2.31  84
2026 03 09 14  10 58 11.262   +22 39 13.11  .02777 1.0192 161.2 18.8 2.61  85
2026 03 09 15  10 56 12.812   +22 40 27.10  .02769 1.0191 161.0 18.8 2.93  85
2026 03 09 16  10 54 13.640   +22 41 35.95  .02761 1.0190 160.8 18.8 3.26  86
2026 03 09 17  10 52 13.760   +22 42 39.55  .02753 1.0189 160.6 18.8 3.62  86
2026 03 09 18  10 50 13.184   +22 43 37.80  .02745 1.0188 160.4 18.8 3.99  86
2026 03 09 19  10 48 11.923   +22 44 30.57  .02738 1.0188 160.2 18.8 4.38  86
2026 03 09 20  10 46 09.994   +22 45 17.79  .02731 1.0187 160.0 18.8 4.79  87
2026 03 09 21  10 44 07.408   +22 45 59.34  .02724 1.0186 159.7 18.8 5.23  87
2026 03 09 22  10 42 04.182   +22 46 35.12  .02717 1.0185 159.5 18.8 5.67  87
2026 03 09 23  10 40 00.329   +22 47 05.05  .02710 1.0184 159.2 18.8 6.14  87
2026 03 10 00  10 37 55.868   +22 47 29.02  .02704 1.0183 159.0 18.8 6.63  87
2026 03 10 01  10 35 50.812   +22 47 46.94  .02698 1.0182 158.7 18.8 7.14  87
2026 03 10 02  10 33 45.181   +22 47 58.74  .02692 1.0181 158.4 18.8 7.67  87
2026 03 10 03  10 31 38.990   +22 48 04.31  .02686 1.0180 158.1 18.8 8.22  87
2026 03 10 04  10 29 32.259   +22 48 03.58  .02680 1.0179 157.8 18.8 8.78  87
2026 03 10 05  10 27 25.006   +22 47 56.47  .02675 1.0178 157.4 18.8 9.37  87
2026 03 10 06  10 25 17.249   +22 47 42.91  .02669 1.0177 157.1 18.8 9.97  87
2026 03 10 07  10 23 09.009   +22 47 22.82  .02664 1.0176 156.8 18.8 10.6  87
2026 03 10 08  10 21 00.305   +22 46 56.13  .02659 1.0175 156.4 18.9 11.2  87
2026 03 10 09  10 18 51.159   +22 46 22.79  .02655 1.0174 156.1 18.9 11.9  86
2026 03 10 10  10 16 41.590   +22 45 42.72  .02650 1.0173 155.7 18.9 12.6  86
2026 03 10 11  10 14 31.621   +22 44 55.88  .02646 1.0172 155.3 18.9 13.3  86
2026 03 10 12  10 12 21.273   +22 44 02.22  .02642 1.0171 155.0 18.9 14.0  86
2026 03 10 13  10 10 10.568   +22 43 01.69  .02638 1.0170 154.6 18.9 14.8  86
2026 03 10 14  10 07 59.530   +22 41 54.24  .02634 1.0169 154.2 18.9 15.5  86
2026 03 10 15  10 05 48.181   +22 40 39.84  .02631 1.0168 153.8 18.9 16.3  86
2026 03 10 16  10 03 36.544   +22 39 18.46  .02628 1.0167 153.4 18.9 17.1  85
2026 03 10 17  10 01 24.644   +22 37 50.07  .02625 1.0166 153.0 18.9 17.9  85
2026 03 10 18  09 59 12.503   +22 36 14.65  .02622 1.0165 152.6 18.9 18.7  85
2026 03 10 19  09 57 00.146   +22 34 32.18  .02619 1.0165 152.2 18.9 19.6  85
2026 03 10 20  09 54 47.598   +22 32 42.65  .02617 1.0164 151.8 19.0 20.4  85
2026 03 10 21  09 52 34.884   +22 30 46.06  .02615 1.0163 151.3 19.0 21.3  85
2026 03 10 22  09 50 22.027   +22 28 42.40  .02613 1.0162 150.9 19.0 22.2  85